Flag for Tuvalu Weather past 2 weeks in Funafuti, Tuvalu

Now
88 °F

Scattered clouds.


Feels Like: 100 °F
Forecast: 81 / 87 °F
Wind: 13 mph from East

Location: Funafuti

Current Time: Aug 22, 2014 at 12:59:48 PM

Latest Report: Aug 22, 2014 at 12:00 PM


Visibility: N/A

Pressure: 29.86 "Hg

Humidity: 70%

Dew point: 77 °F

Location of FunafutiLocation

Historic Weather in Funafuti — Graph

°F

Funafuti temperature yesterday

Maximum temperature yesterday: 88 °F (at 1:00 PM)
Minimum temperature yesterday: 82 °F (at 1:00 AM)
Average temperature yesterday: 85 °F

Past Weeks' High & Low Weather Summary

 TemperatureHumidityPressure
High90 °F (Aug 7, 2:00 PM)94% (Aug 8, 7:00 AM)29.95 "Hg (Aug 8, 7:00 AM)
Low77 °F (Aug 8, 8:00 PM)66% (Aug 12, 10:00 AM)29.56 "Hg (Aug 9, 7:00 AM)
Average84 °F80%29.85 "Hg
* Reported Aug 7 12:00 Noon — Aug 22 12:00 Noon, Funafuti, Weather by CustomWeather, © 2014

Note: Actual official high and low records may vary slightly from our data, if they occured in-between our weather recording intervals... More about our weather records

Advertising

Funafuti weather history for previous 24 hours

 ConditionsComfort  
Time TempWeatherWind HumidityBarometerVisibility
12:00 PM
Aug 22
88 °FScattered clouds.13 mph70%29.86 "HgN/A
11:00 AM86 °FScattered showers. Scattered clouds.17 mph79%29.89 "HgN/A
10:00 AM88 °FPassing clouds.14 mph70%29.89 "HgN/A
9:00 AM86 °FPassing clouds.9 mph75%29.89 "HgN/A
8:00 AM84 °FScattered clouds.12 mph79%29.92 "HgN/A
7:00 AM82 °FPassing clouds.10 mph79%29.89 "HgN/A
6:00 AM82 °FPassing clouds.8 mph79%29.86 "HgN/A
2:00 AM82 °FPassing clouds.8 mph79%29.83 "HgN/A
1:00 AM82 °FPassing clouds.10 mph79%29.86 "HgN/A
12:00 AM82 °FPassing clouds.12 mph79%29.86 "HgN/A
11:00 PM
Aug 21
82 °FPassing clouds.14 mph84%29.89 "HgN/A
10:00 PM84 °FPassing clouds.13 mph79%29.89 "HgN/A
9:00 PM84 °FPassing clouds.10 mph79%29.86 "HgN/A
8:00 PM84 °FPassing clouds.10 mph79%29.83 "HgN/A
7:00 PM84 °FPassing clouds.9 mph79%29.83 "HgN/A
6:00 PM84 °FScattered clouds.12 mph79%29.80 "HgN/A
5:00 PM86 °FScattered clouds.12 mph75%29.80 "HgN/A
4:00 PM86 °FPassing clouds.9 mph75%29.77 "HgN/A
3:00 PM86 °FPassing clouds.13 mph75%29.77 "HgN/A
2:00 PM86 °FPassing clouds.12 mph75%29.80 "HgN/A
1:00 PM88 °FScattered clouds.10 mph70%29.83 "HgN/A
12:00 PM86 °FScattered clouds.12 mph79%29.86 "HgN/A
Weather by CustomWeather, © 2014

See weather overviewHow to use our weather pages